Location: Kellogg
(38.0159°N, 90.0546°W)
Time: 19:59:20
(UTC+00:00)

Transit 2A Rocket - Pass Details

Date: 20 September 2024
Orbit: 583 x 908 km, 66.7° (Epoch: 13 October)

Event Time Altitude Azimuth Distance (km) Brightness Sun altitude
Rises 11:08:20 0° 347° (NNW) 3,485 8.3 -8.4°
Reaches altitude 10° 11:13:51 10° 29° (NNE) 2,465 8.2 -7.3°
Maximum altitude 11:14:37 10° 36° (NE) 2,435 8.3 -7.1°
Drops below altitude 10° 11:15:21 10° 44° (NE) 2,438 8.4 -7.0°
Sets 11:20:32 0° 86° (E) 3,262 11.2 -6.0°
